Regional Weather Roundup
Issued by NWS

Home | Current Version | Previous Version | Text Only | Print | Product List | Glossary Off
Versions: 1 2 3 4 5 6 7 8 9 10 11 12 13 14 15 16 17 18 19 20 21 22 23 24 25 26 27 28 29 30 31 32 33 34 35 36 37 38 39 40 41 42 43 44 45 46 47 48 49 50

000
ASUS45 KTFX 300810
RWRMT
MONTANA REGIONAL WEATHER ROUNDUP
NATIONAL WEATHER SERVICE GREAT FALLS MT
200 AM MDT SAT APR 30 2016

NOTE: "FAIR" INDICATES FEW OR NO CLOUDS BELOW 12000 FEET WITH NO
SIGNIFICANT WEATHER AND/OR OBSTRUCTIONS TO VISIBILITY.

MTZ001>007-043-300900-
WEST OF THE DIVIDE

CITY           SKY/WX    TMP DP  RH WIND       PRES   REMARKS
KALISPELL      MOCLDY    36  35  96 CALM      30.05R
MISSOULA       LGT RAIN  43  39  86 NW3       30.08R
BUTTE          CLOUDY    35  33  92 NW6       30.02R WCI  30
MULLAN PASS    CLOUDY    31  30  96 NW3       30.05R
ANACONDA         N/A     37  36  93 CALM      30.03R
DEER LODGE       N/A     39  36  87 NW3       30.04R
EUREKA           N/A     43  37  81 CALM      30.08R
HAMILTON         N/A     43  36  75 NW5       30.05R
LIBBY            N/A     43  37  81 CALM      30.08R
PLAINS           N/A     45  38  76 CALM      30.07R
$$

MTZ008-052>055-300900-
SOUTHWEST MONTANA

CITY           SKY/WX    TMP DP  RH WIND       PRES   REMARKS
BOZEMAN        PTCLDY    41  30  65 CALM      30.01R
DILLON         CLOUDY    40  33  76 NE13      29.97R
ENNIS          CLOUDY    39  32  75 N12G18    30.02S WCI  32
THREE FORKS      N/A     37  35  92 CALM      30.00R
TWIN BRIDGES     N/A     42  29  60 N10       29.97R
$$

MTZ009-010-012-014-046-048-049-054-300900-
EAST SLOPES AND CENTRAL MONTANA

CITY           SKY/WX    TMP DP  RH WIND       PRES   REMARKS
CUT BANK       PTCLDY    35  33  92 E3        30.08R
GREAT FALLS    CLOUDY    41  34  76 E6        30.03R
MALMSTROM AFB  CLOUDY    40  36  85 NE2       30.05R
HELENA         CLOUDY    43  32  65 SW7       30.02R
CHOTEAU          N/A     32  32 100 N9        30.07R WCI  24
CONRAD           N/A     37  37 100 NE3       30.08R
$$

MTZ011-013-016-021-045-047-050-051-300900-
NORTH CENTRAL MONTANA

CITY           SKY/WX    TMP DP  RH WIND       PRES   REMARKS
HAVRE          CLOUDY    46  39  76 E9        30.08S
LEWISTOWN      CLOUDY    41  35  79 E7        30.07R
N BAR RANCH    CLOUDY    39  37  93 NE3       30.09R
CHINOOK          N/A     46  39  76 E6        30.11R
$$

MTZ017>020-022>027-061-062-300900-
NORTHEAST MONTANA

CITY           SKY/WX    TMP DP  RH WIND       PRES   REMARKS
GLASGOW        CLOUDY    45  36  70 NE9       30.13R
JORDAN           N/A     43  38  82 CALM      30.10R
SIDNEY         CLEAR     37  28  70 N3        30.15S
WOLF POINT     CLOUDY    42  34  73 NE7       30.14S
PLENTYWOOD       N/A     43  25  49 E10       30.17S
POPLAR           N/A     43  30  61 E8        30.15S
SCOBEY           N/A     42  21  43 SE6       30.13S
$$

MTZ028>42-056>058-300900-
SOUTHCENTRAL AND SOUTHEAST MONTANA

CITY           SKY/WX    TMP DP  RH WIND       PRES   REMARKS
BAKER          MOCLDY    38  32  79 E3        30.10R
BILLINGS       CLOUDY    41  37  86 NE7       30.05R
LIVINGSTON     CLOUDY    40  32  73 E9        30.02R
MILES CITY     CLOUDY    45  38  76 N6        30.08S
EKALAKA          N/A     33  29  86 SE2       30.05S
FORSYTH          N/A     45  39  81 E3        30.08S
LAUREL           N/A     40  30  67 N5        30.02R
ROUNDUP          N/A     42  35  76 NE6       29.98R
$$

REGIONAL REPORTS...DAKOTAS

CITY           SKY/WX    TMP DP  RH WIND       PRES   REMARKS
WILLISTON      CLEAR     37  28  70 NW5       30.17R
MINOT          CLEAR     41  28  60 NE8       30.19S
DICKINSON      CLOUDY    35  29  78 NE8       30.11R WCI  29
BEACH          MOCLDY    37  32  81 E6        30.14S
CROSBY           N/A     36  27  69 E8        30.23R WCI  29
WATFORD CITY     N/A     36  28  75 E8        30.17R WCI  29
BISMARCK       CLEAR     40  33  76 NE9       30.13F
GRAND FORKS    CLEAR     40  31  70 E8        30.20R
FARGO          CLEAR     46  33  60 E12       30.16R
BUFFALO SD       N/A     41  34  76 N6        30.01S
RAPID CITY     CLOUDY    40  37  89 N8        30.03F
$$

REGIONAL REPORTS...WYOMING/IDAHO/WASHINGTON

CITY           SKY/WX    TMP DP  RH WIND       PRES   REMARKS
GILLETTE       CLOUDY    38  36  92 NE6       30.01F
SHERIDAN       CLOUDY    41  36  82 N3        30.04S
BUFFALO WY       N/A    N/A N/A N/A MISG      30.02F
CODY           CLOUDY    39  34  81 CALM      29.99S
YELLOWSTONE LA   N/A     31  23  72 VRB3      29.99S
IDAHO FALLS    CLOUDY    38  34  85 NW3       29.92S
SALMON         CLOUDY    37  30  75 CALM      30.00S
BOISE          CLEAR     45  37  73 NW17      29.96R
SPOKANE        DRIZZLE   48  46  93 NE7       30.07R
$$

REGIONAL REPORTS...ALBERTA

CITY           SKY/WX    TMP DP  RH WIND       PRES   REMARKS
EDMONTON       MOCLDY    46  30  53 SE6       30.09R
CALGARY        MOCLDY    43  32  65 S7        30.08R
LETHBRIDGE     CLOUDY    37  36  93 SW5       30.09R
MEDICINE HAT   CLOUDY    48  39  71 N3        30.10S
$$

REGIONAL REPORTS...SASKATCHEWAN

CITY           SKY/WX    TMP DP  RH WIND       PRES   REMARKS
SWIFT CURRENT  CLOUDY    39  28  65 S9        30.15R
REGINA         CLEAR     43  21  42 E13G20    30.24R
SASKATOON      CLEAR     43  27  52 SE10      30.23R
$$



USA.gov is the U.S. government's official web portal to all federal, state and local government web resources and services.